Location: Roc des P�zouls
(43.9667°N, 3.5500°E)
Time: 13:56:38
(UTC+00:00)

Okean 3 Rocket - Pass Details

Date: 14 November 2019
Orbit: 614 x 646 km, 82.5° (Epoch: 05 December)

Event Time Altitude Azimuth Distance (km) Brightness Sun altitude
Rises 05:38:52 0° 206° (SSW) 2,942 6.9 -11.0°
Reaches altitude 10° 05:41:14 10° 215° (SW) 2,035 6.0 -10.6°
Maximum altitude 05:45:28 39° 284° (WNW) 970 4.1 -9.8°
Drops below altitude 10° 05:49:42 10° 353° (N) 2,035 6.0 -9.1°
Sets 05:52:05 0° 2° (N) 2,943 6.9 -8.7°
